Buffalo, NY

2:27 PM EDT on March 29, 2017 (GMT -0400)
Buffalo Niagara International

Weather History for KBUF - November, 2011

Change the Weather History Date:

Thursday, November 3, 2011

  Actual Average Record
Temperature  
Mean Temperature 52 °F 45 °F  
Max Temperature 60 °F 53 °F 80 °F (1961)
Min Temperature 43 °F 38 °F 22 °F (1951)
Degree Days  
Heating Degree Days 13 20  
Month to date heating degree days 47 59  
Since 1 July heating degree days 518 664  
Cooling Degree Days 0 0  
Month to date cooling degree days 0 0  
Year to date cooling degree days 776 544  
Growing Degree Days 2 (Base 50)    
Moisture  
Dew Point 39 °F    
Average Humidity 65    
Maximum Humidity 83    
Minimum Humidity 46    
Precipitation  
Precipitation T in 0.13 in 1.56 in (1985)
Month to date precipitation T 0.40  
Year to date precipitation 42.84 32.98  
Snow  
Snow 0.00 in 0.10 in 5.20 in (1991)
Month to date snowfall 0.0 0.3  
Since 1 July snowfall T 1.2  
Since 1 September snowfall T 1.2  
Snow Depth 0.00 in    
Sea Level Pressure  
Sea Level Pressure 30.03 in    
Wind  
Wind Speed 9 mph (WNW)    
Max Wind Speed 17 mph    
Max Gust Speed 23 mph    
Visibility 10 miles    
Events      
T = Trace of Precipitation, MM = Missing Value Source: NWS Daily Summary

Daily Weather History Graph

Daily Weather History Graph

Search for Another Location

Airport or City:

Trip Planner

Search our weather history database for the weather conditions in past years. The results will help you decide how hot, cold, wet, or windy it might be!

Date:

Astronomy

Nov. 03, 2011 Rise Set
Actual Time 7:51 AM EDT 6:04 PM EDT
Civil Twilight 7:21 AM EDT 6:34 PM EDT
Nautical Twilight 6:48 AM EDT 7:08 PM EDT
Astronomical Twilight 6:15 AM EDT 7:41 PM EDT
Moon 2:36 PM EDT (11/3) 12:51 AM EDT (11/3)
Length of Visible Light 11h 12m
Length of Day
10h 13m
First Quarter, 60% of the Moon is Illuminated
Nov 3
First Quarter
Nov 10
Full
Nov 18
Last Quarter
Nov 25
New
Dec 2
First Quarter

Hourly Weather History & Observations

Time (EDT) Temp. Windchill Dew Point Humidity Pressure Visibility Wind Dir Wind Speed Gust Speed Precip Events Conditions
12:54 AM 55.0 °F - 35.1 °F 47% 30.06 in 10.0 mi SW 12.7 mph - N/A   Scattered Clouds
1:54 AM 53.1 °F - 34.0 °F 48% 30.05 in 10.0 mi SSW 10.4 mph - N/A   Mostly Cloudy
2:54 AM 52.0 °F - 34.0 °F 50% 30.04 in 10.0 mi SW 9.2 mph - N/A   Mostly Cloudy
3:54 AM 52.0 °F - 34.0 °F 50% 30.03 in 10.0 mi SW 8.1 mph - N/A   Mostly Cloudy
4:54 AM 52.0 °F - 34.0 °F 50% 30.01 in 10.0 mi SW 8.1 mph - N/A   Mostly Cloudy
5:54 AM 51.1 °F - 35.1 °F 54% 30.02 in 10.0 mi SSW 8.1 mph - N/A   Mostly Cloudy
6:54 AM 51.1 °F - 35.1 °F 54% 30.01 in 10.0 mi SSW 8.1 mph - N/A   Mostly Cloudy
7:54 AM 51.1 °F - 36.0 °F 56% 30.00 in 10.0 mi SSW 6.9 mph - N/A   Mostly Cloudy
8:54 AM 53.1 °F - 37.0 °F 55% 30.01 in 10.0 mi SSW 8.1 mph - N/A   Overcast
9:54 AM 55.9 °F - 37.0 °F 49% 30.00 in 10.0 mi SW 6.9 mph - N/A   Overcast
10:54 AM 57.9 °F - 37.0 °F 46% 30.00 in 10.0 mi WSW 10.4 mph - N/A   Overcast
11:54 AM 57.9 °F - 41.0 °F 53% 30.01 in 10.0 mi West 10.4 mph - N/A   Overcast
12:54 PM 60.1 °F - 45.0 °F 57% 30.00 in 10.0 mi West 10.4 mph - N/A   Overcast
1:54 PM 59.0 °F - 44.1 °F 58% 29.99 in 10.0 mi NNW 9.2 mph - N/A   Overcast
2:54 PM 55.0 °F - 45.0 °F 69% 29.98 in 10.0 mi North 12.7 mph - N/A   Overcast
3:54 PM 52.0 °F - 44.1 °F 74% 29.99 in 10.0 mi North 8.1 mph - N/A   Overcast
4:54 PM 50.0 °F - 42.1 °F 74% 30.01 in 10.0 mi North 12.7 mph - N/A   Overcast
5:54 PM 50.0 °F - 42.1 °F 74% 30.01 in 10.0 mi North 6.9 mph - N/A   Overcast
6:54 PM 48.9 °F - 43.0 °F 80% 30.03 in 10.0 mi North 9.2 mph - N/A   Overcast
7:54 PM 48.0 °F - 42.1 °F 80% 30.04 in 10.0 mi NNE 8.1 mph - N/A   Overcast
8:54 PM 46.0 °F 40.6 °F 41.0 °F 83% 30.07 in 8.0 mi NE 11.5 mph - 0.00 in   Light Drizzle
9:54 PM 44.6 °F 39.7 °F 39.2 °F 81% 30.08 in 10.0 mi NE 9.2 mph - N/A   Light Drizzle
10:21 PM 44.6 °F 40.7 °F 39.2 °F 81% 30.08 in 10.0 mi NE 6.9 mph - N/A   Overcast
10:54 PM 45.0 °F 40.1 °F 39.0 °F 80% 30.08 in 10.0 mi NNE 9.2 mph - 0.00 in   Overcast
11:54 PM 45.0 °F 41.2 °F 37.0 °F 74% 30.09 in 10.0 mi NNE 6.9 mph - N/A   Mostly Cloudy